Location: Recife
(8.0585°S, 34.8848°W)
Time: 10:18:01
(UTC-03:00)

Courier 1B Rocket - Pass Details

Date: 17 April 2026
Orbit: 920 x 1201 km, 28.2° (Epoch: 13 May)

Event Time Altitude Azimuth Distance (km) Brightness Sun altitude
Rises 00:50:13 0° 338° (NNW) 3,564 - -67.4°
Reaches altitude 10° 00:55:13 10° 12° (NNE) 2,599 - -66.2°
Maximum altitude 00:56:55 11° 29° (NNE) 2,517 - -65.8°
Drops below altitude 10° 00:58:37 10° 45° (NE) 2,598 - -65.4°
Sets 01:03:34 0° 79° (ENE) 3,560 - -64.1°
